BAW379 LATI-EGLL

Flight info

Callsign BAW379
Flight time 2h 43m
Altitude 36000
Route INLOT2W INLOT DCT RETRA DCT GACMO DCT NAVSU DCT MONID DCT NIVES DCT ZARVE DCT ABISO DCT EVAXI DCT MODSA DCT BABEG DCT LIRSU DCT DENUT L608 LOGAN LOGAN2H
Aircraft A320/M-SDE3FGIKRWXY/S

Departure

Time 2026-05-09 07:07
Airport Tirana International Airport Mother Teresa (LATI)

Arrival

Time 2026-05-09 09:50
Airport London Heathrow Airport (EGLL)
Time Latitude Longitude Altitude Speed Heading
2026-05-09 06:44 41.42104 19.71489 122 ft 0 kts 264°
2026-05-09 06:57 41.42108 19.71521 120 ft 4 kts 249°
2026-05-09 06:57 41.42121 19.71549 117 ft 4 kts 209°
2026-05-09 06:57 41.42136 19.71555 119 ft 0 kts 174°
2026-05-09 07:00 41.42134 19.71556 121 ft 1 kts 174°
2026-05-09 07:00 41.42106 19.71559 119 ft 9 kts 174°
2026-05-09 07:01 41.42036 19.71569 122 ft 11 kts 174°
2026-05-09 07:01 41.41958 19.71579 119 ft 12 kts 174°
2026-05-09 07:01 41.41872 19.71591 120 ft 13 kts 174°
2026-05-09 07:01 41.41777 19.71604 123 ft 14 kts 174°
2026-05-09 07:02 41.41673 19.71618 126 ft 16 kts 174°
2026-05-09 07:02 41.41560 19.71633 127 ft 17 kts 174°
2026-05-09 07:02 41.41438 19.71650 128 ft 18 kts 174°
2026-05-09 07:02 41.41306 19.71667 126 ft 20 kts 174°
2026-05-09 07:03 41.41164 19.71687 128 ft 21 kts 174°
2026-05-09 07:03 41.41013 19.71707 129 ft 23 kts 174°
2026-05-09 07:03 41.40853 19.71738 131 ft 24 kts 167°
2026-05-09 07:03 41.40742 19.71763 132 ft 25 kts 173°
2026-05-09 07:04 41.40584 19.71782 132 ft 21 kts 175°
2026-05-09 07:04 41.40438 19.71800 132 ft 18 kts 172°
2026-05-09 07:04 41.40343 19.71870 132 ft 12 kts 144°
2026-05-09 07:04 41.40268 19.71941 133 ft 14 kts 144°
2026-05-09 07:05 41.40240 19.72079 133 ft 11 kts 83°
2026-05-09 07:05 41.40246 19.72147 133 ft 10 kts 84°
2026-05-09 07:05 41.40265 19.72222 132 ft 8 kts 27°
2026-05-09 07:05 41.40281 19.72220 132 ft 0 kts 349°
2026-05-09 07:06 41.40410 19.72196 132 ft 53 kts 355°
2026-05-09 07:06 41.40999 19.72121 134 ft 114 kts 354°
2026-05-09 07:06 41.41957 19.71995 138 ft 159 kts 354°
2026-05-09 07:06 41.43049 19.71858 699 ft 157 kts 355°
2026-05-09 07:07 41.44156 19.71729 1251 ft 162 kts 355°
2026-05-09 07:07 41.45310 19.71616 1668 ft 173 kts 356°
2026-05-09 07:07 41.46577 19.71496 1941 ft 192 kts 356°
2026-05-09 07:07 41.47992 19.71353 2165 ft 215 kts 355°
2026-05-09 07:08 41.49551 19.71187 2481 ft 236 kts 355°
2026-05-09 07:08 41.51264 19.71001 2909 ft 256 kts 355°
2026-05-09 07:08 41.53064 19.70808 3671 ft 263 kts 355°
2026-05-09 07:08 41.54901 19.70609 4516 ft 267 kts 355°
2026-05-09 07:09 41.56762 19.70352 5356 ft 271 kts 348°
2026-05-09 07:09 41.58546 19.69616 6181 ft 273 kts 338°
2026-05-09 07:09 41.60291 19.68563 7002 ft 277 kts 334°
2026-05-09 07:09 41.62046 19.67381 7815 ft 281 kts 333°
2026-05-09 07:10 41.63794 19.66198 8605 ft 283 kts 333°
2026-05-09 07:10 41.65576 19.65030 9362 ft 287 kts 334°
2026-05-09 07:10 41.67364 19.63894 10107 ft 289 kts 334°
2026-05-09 07:10 41.69238 19.62730 10482 ft 308 kts 334°
2026-05-09 07:11 41.71256 19.61493 10637 ft 330 kts 334°
2026-05-09 07:11 41.73393 19.60194 11039 ft 342 kts 334°
2026-05-09 07:11 41.75580 19.58874 11663 ft 347 kts 334°
2026-05-09 07:11 41.77788 19.57544 12324 ft 350 kts 333°
2026-05-09 07:12 41.80024 19.56198 12986 ft 352 kts 333°
2026-05-09 07:12 41.82269 19.54846 13622 ft 355 kts 333°
2026-05-09 07:12 41.84532 19.53481 14267 ft 358 kts 333°
2026-05-09 07:12 41.86810 19.52104 14854 ft 361 kts 333°
2026-05-09 07:13 41.89108 19.50707 15435 ft 364 kts 333°
2026-05-09 07:13 41.91419 19.49300 16006 ft 366 kts 333°
2026-05-09 07:13 41.93748 19.47878 16571 ft 369 kts 333°
2026-05-09 07:13 41.96095 19.46446 17122 ft 372 kts 333°
2026-05-09 07:14 41.98468 19.45024 17670 ft 375 kts 335°
2026-05-09 07:14 42.00906 19.43730 18222 ft 378 kts 338°
2026-05-09 07:14 42.03403 19.42537 18756 ft 382 kts 339°
2026-05-09 07:14 42.05937 19.41396 19303 ft 386 kts 340°
2026-05-09 07:15 42.08498 19.40255 19847 ft 389 kts 340°
2026-05-09 07:15 42.11074 19.39091 20383 ft 392 kts 339°
2026-05-09 07:15 42.13664 19.37890 20907 ft 395 kts 339°
2026-05-09 07:15 42.16269 19.36657 21398 ft 399 kts 339°
2026-05-09 07:16 42.18891 19.35401 21877 ft 401 kts 338°
2026-05-09 07:16 42.21521 19.34132 22320 ft 403 kts 336°
2026-05-09 07:16 42.24052 19.32492 22742 ft 404 kts 327°
2026-05-09 07:16 42.26441 19.30492 23167 ft 406 kts 326°
2026-05-09 07:17 42.28850 19.28472 23589 ft 409 kts 326°
2026-05-09 07:17 42.31273 19.26445 23996 ft 411 kts 326°
2026-05-09 07:17 42.33709 19.24406 24394 ft 414 kts 326°
2026-05-09 07:17 42.36162 19.22348 24790 ft 416 kts 326°
2026-05-09 07:18 42.38629 19.20277 25175 ft 418 kts 326°
2026-05-09 07:18 42.41099 19.18204 25554 ft 419 kts 326°
2026-05-09 07:18 42.43585 19.16116 25916 ft 421 kts 326°
2026-05-09 07:18 42.46047 19.14042 26275 ft 423 kts 326°
2026-05-09 07:19 42.48583 19.11903 26627 ft 425 kts 326°
2026-05-09 07:19 42.51062 19.09812 26974 ft 427 kts 326°
2026-05-09 07:19 42.53592 19.07678 27308 ft 428 kts 326°
2026-05-09 07:19 42.56128 19.05539 27637 ft 430 kts 326°
2026-05-09 07:20 42.58672 19.03392 27973 ft 431 kts 326°
2026-05-09 07:20 42.61224 19.01235 28312 ft 433 kts 326°
2026-05-09 07:20 42.63783 18.99067 28642 ft 434 kts 326°
2026-05-09 07:20 42.66340 18.96893 29013 ft 434 kts 326°
2026-05-09 07:21 42.68890 18.94724 29455 ft 432 kts 326°
2026-05-09 07:21 42.71430 18.92563 29900 ft 429 kts 325°
2026-05-09 07:21 42.73958 18.90411 30330 ft 428 kts 325°
2026-05-09 07:21 42.76474 18.88265 30758 ft 426 kts 325°
2026-05-09 07:22 42.78985 18.86123 31147 ft 426 kts 326°
2026-05-09 07:22 42.81494 18.83982 31538 ft 424 kts 326°
2026-05-09 07:22 42.83995 18.81847 31929 ft 423 kts 325°
2026-05-09 07:22 42.86486 18.79717 32319 ft 422 kts 325°
2026-05-09 07:23 42.88969 18.77593 32693 ft 422 kts 326°
2026-05-09 07:23 42.91449 18.75468 33068 ft 421 kts 325°
2026-05-09 07:23 42.93924 18.73347 33439 ft 420 kts 326°
2026-05-09 07:23 42.96400 18.71223 33818 ft 419 kts 325°
2026-05-09 07:24 42.98864 18.69108 34171 ft 418 kts 325°
2026-05-09 07:24 43.01323 18.66993 34517 ft 417 kts 325°
2026-05-09 07:24 43.03774 18.64885 34841 ft 416 kts 325°
2026-05-09 07:24 43.06223 18.62776 35155 ft 415 kts 325°
2026-05-09 07:25 43.08662 18.60670 35468 ft 414 kts 325°
2026-05-09 07:25 43.11089 18.58573 35769 ft 413 kts 325°
2026-05-09 07:25 43.13515 18.56466 36014 ft 413 kts 323°
2026-05-09 07:25 43.15794 18.54080 36077 ft 413 kts 318°
2026-05-09 07:26 43.20256 18.48964 36092 ft 421 kts 318°
2026-05-09 07:26 43.24757 18.43819 36090 ft 421 kts 317°
2026-05-09 07:27 43.29217 18.38698 36100 ft 421 kts 317°
2026-05-09 07:27 43.33711 18.33529 36081 ft 420 kts 317°
2026-05-09 07:28 43.38191 18.28358 36086 ft 421 kts 317°
2026-05-09 07:28 43.42674 18.23181 36090 ft 421 kts 317°
2026-05-09 07:29 43.47153 18.17995 36097 ft 420 kts 317°
2026-05-09 07:29 43.51630 18.12807 36105 ft 420 kts 317°
2026-05-09 07:30 43.56103 18.07618 36111 ft 420 kts 317°
2026-05-09 07:30 43.60570 18.02418 36113 ft 419 kts 317°
2026-05-09 07:31 43.65022 17.97229 36115 ft 419 kts 317°
2026-05-09 07:31 43.69471 17.92035 36119 ft 419 kts 317°
2026-05-09 07:32 43.73908 17.86826 36124 ft 418 kts 317°
2026-05-09 07:32 43.78346 17.81615 36127 ft 418 kts 317°
2026-05-09 07:33 43.84992 17.73791 36123 ft 419 kts 317°
2026-05-09 07:34 43.89404 17.68594 36108 ft 419 kts 317°
2026-05-09 07:34 43.93837 17.63356 36107 ft 418 kts 317°
2026-05-09 07:35 43.98264 17.58115 36114 ft 418 kts 317°
2026-05-09 07:35 44.02680 17.52874 36110 ft 418 kts 317°
2026-05-09 07:36 44.07092 17.47618 36106 ft 418 kts 317°
2026-05-09 07:36 44.11504 17.42361 36104 ft 418 kts 317°
2026-05-09 07:37 44.15908 17.37101 36105 ft 418 kts 317°
2026-05-09 07:37 44.20320 17.31821 36105 ft 418 kts 317°
2026-05-09 07:38 44.24734 17.26527 36102 ft 418 kts 316°
2026-05-09 07:38 44.29149 17.21215 36104 ft 419 kts 316°
2026-05-09 07:39 44.33569 17.15897 36106 ft 420 kts 316°
2026-05-09 07:39 44.37990 17.10567 36104 ft 420 kts 316°
2026-05-09 07:40 44.42407 17.05219 36104 ft 420 kts 316°
2026-05-09 07:40 44.46836 16.99858 36108 ft 421 kts 316°
2026-05-09 07:41 44.51263 16.94494 36111 ft 421 kts 316°
2026-05-09 07:41 44.55665 16.89080 36114 ft 420 kts 315°
2026-05-09 07:42 44.59842 16.83348 36106 ft 419 kts 312°
2026-05-09 07:42 44.63868 16.77500 36108 ft 419 kts 311°
2026-05-09 07:43 44.67945 16.71637 36111 ft 420 kts 312°
2026-05-09 07:43 44.72055 16.65807 36109 ft 419 kts 312°
2026-05-09 07:44 44.76170 16.59988 36116 ft 420 kts 312°
2026-05-09 07:44 44.80280 16.54149 36123 ft 419 kts 312°
2026-05-09 07:45 44.84379 16.48303 36120 ft 419 kts 312°
2026-05-09 07:45 44.88484 16.42442 36125 ft 420 kts 312°
2026-05-09 07:46 44.92577 16.36579 36128 ft 420 kts 312°
2026-05-09 07:46 44.96671 16.30705 36133 ft 419 kts 312°
2026-05-09 07:47 45.00664 16.24715 36131 ft 419 kts 310°
2026-05-09 07:47 45.04562 16.18586 36129 ft 419 kts 309°
2026-05-09 07:48 45.07799 16.13496 36134 ft 418 kts 310°
2026-05-09 07:48 45.11710 16.07402 36128 ft 418 kts 310°
2026-05-09 07:49 45.15622 16.01322 36138 ft 418 kts 310°
2026-05-09 07:49 45.19527 15.95230 36146 ft 417 kts 310°
2026-05-09 07:50 45.23438 15.89154 36144 ft 417 kts 311°
2026-05-09 07:50 45.27529 15.83293 36144 ft 417 kts 313°
2026-05-09 07:51 45.31701 15.77537 36143 ft 417 kts 313°
2026-05-09 07:51 45.35838 15.71765 36142 ft 416 kts 312°
2026-05-09 07:52 45.39936 15.65944 36139 ft 416 kts 312°
2026-05-09 07:52 45.44030 15.60090 36133 ft 417 kts 312°
2026-05-09 07:53 45.48120 15.54250 36139 ft 416 kts 312°
2026-05-09 07:53 45.52210 15.48398 36126 ft 416 kts 312°
2026-05-09 07:54 45.56267 15.42584 36144 ft 416 kts 312°
2026-05-09 07:54 45.60355 15.36710 36133 ft 416 kts 312°
2026-05-09 07:55 45.64438 15.30832 36146 ft 416 kts 312°
2026-05-09 07:55 45.68522 15.24960 36145 ft 416 kts 312°
2026-05-09 07:56 45.72598 15.19073 36146 ft 416 kts 311°
2026-05-09 07:56 45.76669 15.13167 36145 ft 416 kts 311°
2026-05-09 07:57 45.80728 15.07253 36144 ft 416 kts 311°
2026-05-09 07:57 45.84793 15.01341 36143 ft 416 kts 311°
2026-05-09 07:58 45.88857 14.95425 36145 ft 416 kts 311°
2026-05-09 07:58 45.92815 14.89374 36135 ft 415 kts 309°
2026-05-09 07:59 45.96642 14.83156 36132 ft 415 kts 308°
2026-05-09 07:59 46.00458 14.76932 36143 ft 415 kts 308°
2026-05-09 08:00 46.04301 14.70740 36136 ft 415 kts 309°
2026-05-09 08:00 46.08158 14.64538 36146 ft 416 kts 308°
2026-05-09 08:01 46.12013 14.58325 36147 ft 416 kts 308°
2026-05-09 08:01 46.15865 14.52101 36146 ft 416 kts 308°
2026-05-09 08:02 46.19709 14.45867 36149 ft 416 kts 308°
2026-05-09 08:02 46.23553 14.39612 36146 ft 416 kts 308°
2026-05-09 08:03 46.27393 14.33350 36147 ft 416 kts 308°
2026-05-09 08:03 46.31274 14.27131 36148 ft 416 kts 309°
2026-05-09 08:04 46.35149 14.20973 36149 ft 417 kts 309°
2026-05-09 08:04 46.39040 14.14758 36147 ft 416 kts 309°
2026-05-09 08:05 46.42917 14.08528 36147 ft 416 kts 308°
2026-05-09 08:05 46.46789 14.02286 36145 ft 416 kts 308°
2026-05-09 08:06 46.50666 13.96020 36145 ft 417 kts 308°
2026-05-09 08:06 46.54533 13.89756 36148 ft 417 kts 308°
2026-05-09 08:07 46.58399 13.83469 36150 ft 417 kts 308°
2026-05-09 08:07 46.62261 13.77196 36150 ft 416 kts 308°
2026-05-09 08:08 46.66114 13.70914 36148 ft 416 kts 308°
2026-05-09 08:08 46.69966 13.64622 36143 ft 417 kts 308°
2026-05-09 08:09 46.73815 13.58311 36128 ft 417 kts 308°
2026-05-09 08:09 46.77665 13.51986 36144 ft 417 kts 309°
2026-05-09 08:10 46.81689 13.45867 36145 ft 419 kts 311°
2026-05-09 08:10 46.85877 13.39918 36145 ft 420 kts 312°
2026-05-09 08:11 46.90032 13.33992 36149 ft 420 kts 311°
2026-05-09 08:11 46.94170 13.27963 36149 ft 420 kts 311°
2026-05-09 08:12 47.00343 13.18841 36150 ft 420 kts 311°
2026-05-09 08:12 47.04462 13.12762 36167 ft 420 kts 311°
2026-05-09 08:13 47.08577 13.06691 36166 ft 420 kts 311°
2026-05-09 08:13 47.12698 13.00605 36179 ft 421 kts 311°
2026-05-09 08:14 47.16818 12.94498 36175 ft 420 kts 311°
2026-05-09 08:14 47.20933 12.88373 36180 ft 421 kts 311°
2026-05-09 08:15 47.25047 12.82242 36182 ft 421 kts 311°
2026-05-09 08:15 47.29170 12.76090 36184 ft 422 kts 311°
2026-05-09 08:16 47.33281 12.69942 36183 ft 421 kts 311°
2026-05-09 08:16 47.37395 12.63765 36188 ft 422 kts 310°
2026-05-09 08:17 47.41502 12.57596 36185 ft 421 kts 310°
2026-05-09 08:17 47.45599 12.51411 36190 ft 421 kts 310°
2026-05-09 08:18 47.49699 12.45219 36186 ft 421 kts 310°
2026-05-09 08:18 47.53788 12.39026 36190 ft 421 kts 310°
2026-05-09 08:19 47.57845 12.32865 36183 ft 420 kts 310°
2026-05-09 08:19 47.61917 12.26649 36190 ft 420 kts 310°
2026-05-09 08:20 47.65550 12.19952 36187 ft 414 kts 298°
2026-05-09 08:20 47.68589 12.12688 36184 ft 414 kts 299°
2026-05-09 08:21 47.71631 12.05421 36178 ft 414 kts 299°
2026-05-09 08:21 47.74666 11.98153 36176 ft 414 kts 299°
2026-05-09 08:22 47.77701 11.90866 36176 ft 414 kts 298°
2026-05-09 08:22 47.80732 11.83577 36170 ft 414 kts 298°
2026-05-09 08:23 47.83751 11.76288 36168 ft 414 kts 298°
2026-05-09 08:23 47.86762 11.68994 36162 ft 413 kts 298°
2026-05-09 08:24 47.89767 11.61686 36158 ft 413 kts 298°
2026-05-09 08:24 47.92772 11.54376 36157 ft 413 kts 298°
2026-05-09 08:25 47.95770 11.47052 36155 ft 414 kts 298°
2026-05-09 08:25 47.98769 11.39718 36150 ft 414 kts 298°
2026-05-09 08:26 48.01739 11.32432 36147 ft 413 kts 298°
2026-05-09 08:26 48.04727 11.25077 36135 ft 414 kts 298°
2026-05-09 08:27 48.07713 11.17711 36124 ft 415 kts 298°
2026-05-09 08:27 48.10712 11.10292 36123 ft 416 kts 298°
2026-05-09 08:28 48.13704 11.02877 36132 ft 417 kts 298°
2026-05-09 08:28 48.16693 10.95425 36137 ft 418 kts 298°
2026-05-09 08:29 48.19685 10.87969 36133 ft 418 kts 298°
2026-05-09 08:29 48.22673 10.80489 36143 ft 418 kts 298°
2026-05-09 08:30 48.25658 10.73000 36144 ft 418 kts 298°
2026-05-09 08:30 48.28635 10.65517 36145 ft 418 kts 298°
2026-05-09 08:31 48.31607 10.58010 36144 ft 418 kts 298°
2026-05-09 08:31 48.34093 10.51719 36143 ft 418 kts 298°
2026-05-09 08:32 48.37037 10.44249 36143 ft 418 kts 298°
2026-05-09 08:33 48.41473 10.32965 36132 ft 417 kts 298°
2026-05-09 08:33 48.44429 10.25429 36135 ft 418 kts 298°
2026-05-09 08:34 48.47379 10.17882 36142 ft 418 kts 298°
2026-05-09 08:34 48.50317 10.10319 36146 ft 418 kts 298°
2026-05-09 08:35 48.53248 10.02752 36146 ft 418 kts 298°
2026-05-09 08:35 48.56183 9.95179 36137 ft 418 kts 298°
2026-05-09 08:36 48.59111 9.87591 36137 ft 419 kts 298°
2026-05-09 08:36 48.62044 9.79978 36137 ft 418 kts 298°
2026-05-09 08:37 48.64963 9.72361 36133 ft 419 kts 298°
2026-05-09 08:37 48.68020 9.64851 36127 ft 421 kts 306°
2026-05-09 08:38 48.71574 9.57779 36127 ft 422 kts 305°
2026-05-09 08:38 48.75111 9.50684 36121 ft 423 kts 305°
2026-05-09 08:39 48.78649 9.43549 36129 ft 423 kts 305°
2026-05-09 08:39 48.82184 9.36413 36124 ft 423 kts 305°
2026-05-09 08:40 48.85703 9.29310 36118 ft 424 kts 306°
2026-05-09 08:40 48.89241 9.22143 36112 ft 424 kts 305°
2026-05-09 08:41 48.92773 9.14949 36120 ft 424 kts 305°
2026-05-09 08:41 48.96300 9.07737 36121 ft 425 kts 306°
2026-05-09 08:42 48.99838 9.00514 36115 ft 425 kts 306°
2026-05-09 08:42 49.03362 8.93276 36118 ft 425 kts 306°
2026-05-09 08:43 49.06881 8.86036 36118 ft 425 kts 306°
2026-05-09 08:43 49.10398 8.78784 36121 ft 425 kts 306°
2026-05-09 08:44 49.13920 8.71516 36123 ft 426 kts 306°
2026-05-09 08:44 49.17414 8.64292 36128 ft 426 kts 306°
2026-05-09 08:45 49.20924 8.56988 36121 ft 426 kts 306°
2026-05-09 08:45 49.24427 8.49664 36120 ft 426 kts 306°
2026-05-09 08:46 49.27936 8.42336 36133 ft 427 kts 306°
2026-05-09 08:46 49.31446 8.34982 36129 ft 427 kts 306°
2026-05-09 08:47 49.34953 8.27618 36142 ft 428 kts 306°
2026-05-09 08:47 49.38462 8.20232 36142 ft 428 kts 306°
2026-05-09 08:48 49.41962 8.12833 36135 ft 429 kts 306°
2026-05-09 08:48 49.45458 8.05416 36131 ft 429 kts 306°
2026-05-09 08:49 49.48958 7.97986 36136 ft 429 kts 307°
2026-05-09 08:49 49.52454 7.90536 36131 ft 429 kts 307°
2026-05-09 08:50 49.55938 7.83087 36128 ft 429 kts 307°
2026-05-09 08:50 49.59396 7.75676 36123 ft 429 kts 306°
2026-05-09 08:51 49.62879 7.68194 36131 ft 429 kts 307°
2026-05-09 08:51 49.66356 7.60715 36135 ft 429 kts 306°
2026-05-09 08:52 49.69824 7.53211 36135 ft 429 kts 306°
2026-05-09 08:52 49.73287 7.45703 36128 ft 429 kts 306°
2026-05-09 08:53 49.76751 7.38170 36141 ft 429 kts 306°
2026-05-09 08:53 49.80208 7.30643 36135 ft 429 kts 306°
2026-05-09 08:54 49.83640 7.23127 36147 ft 429 kts 306°
2026-05-09 08:54 49.87089 7.15576 36152 ft 429 kts 306°
2026-05-09 08:55 49.90531 7.08010 36154 ft 429 kts 306°
2026-05-09 08:55 49.93984 7.00417 36154 ft 430 kts 306°
2026-05-09 08:56 49.97420 6.92828 36152 ft 430 kts 306°
2026-05-09 08:56 50.00850 6.85213 36150 ft 429 kts 306°
2026-05-09 08:57 50.04269 6.77591 36147 ft 429 kts 306°
2026-05-09 08:57 50.07683 6.69967 36146 ft 429 kts 306°
2026-05-09 08:58 50.11105 6.62337 36146 ft 429 kts 306°
2026-05-09 08:58 50.14521 6.54695 36147 ft 429 kts 306°
2026-05-09 08:59 50.17914 6.47041 36145 ft 429 kts 306°
2026-05-09 08:59 50.21205 6.39241 36145 ft 430 kts 303°
2026-05-09 09:00 50.24307 6.31254 36145 ft 431 kts 302°
2026-05-09 09:00 50.27385 6.23223 36143 ft 430 kts 302°
2026-05-09 09:01 50.30495 6.15235 36146 ft 430 kts 303°
2026-05-09 09:01 50.33626 6.07265 36146 ft 430 kts 303°
2026-05-09 09:02 50.36737 5.99320 36146 ft 430 kts 302°
2026-05-09 09:02 50.39839 5.91317 36144 ft 430 kts 302°
2026-05-09 09:03 50.42934 5.83303 36140 ft 429 kts 302°
2026-05-09 09:03 50.46035 5.75286 36145 ft 429 kts 302°
2026-05-09 09:04 50.49122 5.67289 36133 ft 429 kts 301°
2026-05-09 09:04 50.52214 5.59226 36119 ft 431 kts 301°
2026-05-09 09:05 50.55309 5.51138 36125 ft 433 kts 301°
2026-05-09 09:05 50.58408 5.43017 36122 ft 433 kts 301°
2026-05-09 09:06 50.61504 5.34857 36122 ft 434 kts 301°
2026-05-09 09:06 50.64597 5.26665 36133 ft 435 kts 301°
2026-05-09 09:07 50.67699 5.18462 36146 ft 436 kts 301°
2026-05-09 09:07 50.70800 5.10239 36147 ft 436 kts 300°
2026-05-09 09:08 50.73893 5.01994 36148 ft 437 kts 300°
2026-05-09 09:08 50.76982 4.93729 36147 ft 437 kts 300°
2026-05-09 09:09 50.80068 4.85465 36147 ft 437 kts 300°
2026-05-09 09:09 50.83162 4.77153 36150 ft 438 kts 300°
2026-05-09 09:10 50.86244 4.68852 36149 ft 438 kts 300°
2026-05-09 09:10 50.89326 4.60501 36149 ft 438 kts 300°
2026-05-09 09:11 50.92396 4.52155 36151 ft 439 kts 300°
2026-05-09 09:11 50.95444 4.43847 36152 ft 439 kts 300°
2026-05-09 09:12 50.98500 4.35474 36149 ft 438 kts 299°
2026-05-09 09:12 51.01555 4.27100 36151 ft 438 kts 299°
2026-05-09 09:13 51.04605 4.18729 36152 ft 438 kts 299°
2026-05-09 09:13 51.07643 4.10332 36152 ft 438 kts 299°
2026-05-09 09:14 51.10678 4.01919 36149 ft 438 kts 299°
2026-05-09 09:14 51.13697 3.93517 36134 ft 438 kts 298°
2026-05-09 09:15 51.16720 3.85085 36130 ft 438 kts 298°
2026-05-09 09:15 51.19232 3.78060 36129 ft 439 kts 298°
2026-05-09 09:16 51.22272 3.69521 36126 ft 440 kts 298°
2026-05-09 09:16 51.26849 3.56888 36144 ft 441 kts 300°
2026-05-09 09:17 51.30009 3.48481 36150 ft 441 kts 300°
2026-05-09 09:17 51.33147 3.40047 36154 ft 441 kts 299°
2026-05-09 09:18 51.35832 3.31256 36155 ft 439 kts 289°
2026-05-09 09:18 51.37996 3.22102 36154 ft 440 kts 289°
2026-05-09 09:19 51.40149 3.12942 36153 ft 440 kts 289°
2026-05-09 09:19 51.42314 3.03764 36154 ft 440 kts 289°
2026-05-09 09:20 51.44476 2.94576 36146 ft 440 kts 289°
2026-05-09 09:20 51.46628 2.85371 36140 ft 441 kts 289°
2026-05-09 09:21 51.48773 2.76153 36144 ft 441 kts 289°
2026-05-09 09:21 51.50901 2.66968 36143 ft 442 kts 288°
2026-05-09 09:22 51.53044 2.57654 36132 ft 442 kts 288°
2026-05-09 09:22 51.55156 2.48458 36132 ft 441 kts 288°
2026-05-09 09:23 51.57275 2.39186 35949 ft 442 kts 288°
2026-05-09 09:23 51.58341 2.34497 34873 ft 452 kts 288°
2026-05-09 09:23 51.59424 2.29741 34083 ft 453 kts 288°
2026-05-09 09:24 51.60511 2.24967 33198 ft 456 kts 288°
2026-05-09 09:24 51.61606 2.20155 32331 ft 458 kts 288°
2026-05-09 09:24 51.62697 2.15348 31604 ft 456 kts 288°
2026-05-09 09:24 51.63772 2.10592 31122 ft 449 kts 288°
2026-05-09 09:25 51.64832 2.05884 30553 ft 445 kts 287°
2026-05-09 09:25 51.65880 2.01217 29993 ft 440 kts 287°
2026-05-09 09:25 51.66914 1.96601 29436 ft 436 kts 287°
2026-05-09 09:25 51.67936 1.92025 28873 ft 432 kts 287°
2026-05-09 09:26 51.68948 1.87487 28312 ft 428 kts 287°
2026-05-09 09:26 51.69950 1.82985 27763 ft 424 kts 287°
2026-05-09 09:26 51.70941 1.78529 27225 ft 421 kts 287°
2026-05-09 09:26 51.71921 1.74100 26673 ft 418 kts 287°
2026-05-09 09:27 51.72891 1.69694 26138 ft 414 kts 287°
2026-05-09 09:27 51.73826 1.65328 25614 ft 410 kts 284°
2026-05-09 09:27 51.74378 1.60847 25105 ft 405 kts 274°
2026-05-09 09:27 51.74430 1.56327 24481 ft 403 kts 264°
2026-05-09 09:28 51.74141 1.51834 23871 ft 402 kts 262°
2026-05-09 09:28 51.73852 1.47397 23263 ft 402 kts 263°
2026-05-09 09:28 51.73562 1.42844 22657 ft 403 kts 263°
2026-05-09 09:28 51.73281 1.38416 22048 ft 402 kts 262°
2026-05-09 09:29 51.72993 1.33887 21425 ft 401 kts 262°
2026-05-09 09:29 51.72705 1.29419 20836 ft 399 kts 262°
2026-05-09 09:29 51.72417 1.25003 20342 ft 395 kts 262°
2026-05-09 09:29 51.72126 1.20640 19843 ft 393 kts 262°
2026-05-09 09:30 51.71834 1.16293 19385 ft 388 kts 262°
2026-05-09 09:30 51.71544 1.11991 18881 ft 385 kts 262°
2026-05-09 09:30 51.71256 1.07724 18370 ft 381 kts 262°
2026-05-09 09:30 51.70967 1.03485 17858 ft 378 kts 262°
2026-05-09 09:31 51.70679 0.99290 17324 ft 375 kts 262°
2026-05-09 09:31 51.70392 0.95136 16773 ft 372 kts 262°
2026-05-09 09:31 51.70104 0.90997 16227 ft 369 kts 262°
2026-05-09 09:32 51.69539 0.82837 15106 ft 364 kts 262°
2026-05-09 09:32 51.69254 0.78798 14542 ft 361 kts 262°
2026-05-09 09:32 51.68966 0.74793 13985 ft 358 kts 262°
2026-05-09 09:32 51.68682 0.70825 13417 ft 356 kts 263°
2026-05-09 09:33 51.68402 0.66875 12853 ft 353 kts 263°
2026-05-09 09:33 51.68125 0.62952 12304 ft 351 kts 263°
2026-05-09 09:33 51.67846 0.59069 11915 ft 344 kts 263°
2026-05-09 09:33 51.67573 0.55334 11791 ft 329 kts 263°
2026-05-09 09:34 51.67312 0.51743 11665 ft 317 kts 263°
2026-05-09 09:34 51.67061 0.48283 11540 ft 305 kts 263°
2026-05-09 09:34 51.66818 0.44925 11313 ft 298 kts 263°
2026-05-09 09:36 51.65113 0.22024 8943 ft 288 kts 263°
2026-05-09 09:36 51.64871 0.18834 8616 ft 286 kts 263°
2026-05-09 09:36 51.64630 0.15653 8294 ft 285 kts 263°
2026-05-09 09:37 51.64412 0.12502 7970 ft 283 kts 264°
2026-05-09 09:37 51.64235 0.09365 7644 ft 282 kts 265°
2026-05-09 09:37 51.64072 0.06227 7320 ft 281 kts 265°
2026-05-09 09:37 51.63914 0.03119 7146 ft 279 kts 265°
2026-05-09 09:38 51.63752 0.00013 7146 ft 280 kts 265°
2026-05-09 09:38 51.63584 -0.03131 7149 ft 282 kts 264°
2026-05-09 09:38 51.63430 -0.05974 7154 ft 284 kts 264°
2026-05-09 09:38 51.63253 -0.09136 7153 ft 284 kts 264°
2026-05-09 09:39 51.63073 -0.12303 7146 ft 284 kts 264°
2026-05-09 09:39 51.62892 -0.15463 7149 ft 284 kts 264°
2026-05-09 09:39 51.62708 -0.18632 7142 ft 284 kts 264°
2026-05-09 09:39 51.62524 -0.21794 7142 ft 284 kts 264°
2026-05-09 09:40 51.62340 -0.24976 7142 ft 285 kts 264°
2026-05-09 09:40 51.62156 -0.28145 7152 ft 284 kts 264°
2026-05-09 09:40 51.61972 -0.31309 7143 ft 284 kts 264°
2026-05-09 09:40 51.61786 -0.34477 7151 ft 284 kts 264°
2026-05-09 09:41 51.61600 -0.37637 7151 ft 284 kts 264°
2026-05-09 09:41 51.61413 -0.40806 7142 ft 284 kts 264°
2026-05-09 09:41 51.61228 -0.43966 7137 ft 284 kts 264°
2026-05-09 09:41 51.61041 -0.47129 7138 ft 284 kts 264°
2026-05-09 09:42 51.60850 -0.50297 7144 ft 284 kts 264°
2026-05-09 09:42 51.60658 -0.53458 7125 ft 284 kts 264°
2026-05-09 09:42 51.60467 -0.56599 6813 ft 282 kts 264°
2026-05-09 09:42 51.60275 -0.59741 6501 ft 281 kts 264°
2026-05-09 09:43 51.60084 -0.62856 6163 ft 280 kts 264°
2026-05-09 09:43 51.59894 -0.65964 5868 ft 279 kts 264°
2026-05-09 09:43 51.59704 -0.69063 5557 ft 278 kts 264°
2026-05-09 09:43 51.59519 -0.72104 5258 ft 276 kts 264°
2026-05-09 09:44 51.59323 -0.75156 4863 ft 273 kts 261°
2026-05-09 09:44 51.58619 -0.77904 4398 ft 263 kts 225°
2026-05-09 09:44 51.57158 -0.79433 4250 ft 241 kts 193°
2026-05-09 09:44 51.55560 -0.79478 4086 ft 229 kts 168°
2026-05-09 09:45 51.54005 -0.79197 3946 ft 222 kts 174°
2026-05-09 09:45 51.52474 -0.79135 3779 ft 217 kts 176°
2026-05-09 09:45 51.51008 -0.79129 3608 ft 204 kts 176°
2026-05-09 09:45 51.49600 -0.79119 3461 ft 199 kts 175°
2026-05-09 09:46 51.48308 -0.78601 3200 ft 189 kts 141°
2026-05-09 09:46 51.47635 -0.76905 3010 ft 184 kts 99°
2026-05-09 09:46 51.47608 -0.74836 2999 ft 186 kts 89°
2026-05-09 09:46 51.47624 -0.72754 2940 ft 188 kts 89°
2026-05-09 09:47 51.47638 -0.70667 2758 ft 187 kts 89°
2026-05-09 09:47 51.47649 -0.68577 2517 ft 187 kts 89°
2026-05-09 09:47 51.47661 -0.66521 2282 ft 182 kts 89°
2026-05-09 09:47 51.47672 -0.64495 2046 ft 181 kts 89°
2026-05-09 09:48 51.47682 -0.62505 1811 ft 173 kts 89°
2026-05-09 09:48 51.47692 -0.60642 1585 ft 163 kts 89°
2026-05-09 09:48 51.47701 -0.58848 1383 ft 160 kts 89°
2026-05-09 09:48 51.47710 -0.57084 1166 ft 153 kts 89°
2026-05-09 09:49 51.47717 -0.55480 962 ft 140 kts 89°
2026-05-09 09:49 51.47724 -0.53924 783 ft 136 kts 89°
2026-05-09 09:49 51.47731 -0.52444 607 ft 134 kts 89°
2026-05-09 09:49 51.47739 -0.50935 422 ft 133 kts 88°
2026-05-09 09:50 51.47749 -0.49460 245 ft 134 kts 88°
2026-05-09 09:50 51.47750 -0.47952 96 ft 128 kts 89°
2026-05-09 09:50 51.47760 -0.46715 89 ft 91 kts 89°
2026-05-09 09:50 51.47761 -0.45966 88 ft 49 kts 90°
2026-05-09 09:51 51.47761 -0.45547 88 ft 23 kts 98°
2026-05-09 09:51 51.47654 -0.45462 86 ft 14 kts 181°
2026-05-09 09:51 51.47594 -0.45557 86 ft 13 kts 270°
2026-05-09 09:51 51.47594 -0.45653 86 ft 10 kts 271°
2026-05-09 09:52 51.47595 -0.45776 91 ft 12 kts 270°
2026-05-09 09:52 51.47595 -0.45927 88 ft 15 kts 270°
2026-05-09 09:52 51.47594 -0.46108 89 ft 18 kts 269°
2026-05-09 09:52 51.47593 -0.46319 88 ft 20 kts 269°
2026-05-09 09:53 51.47590 -0.46559 88 ft 21 kts 269°
2026-05-09 09:53 51.47589 -0.46756 89 ft 16 kts 270°
2026-05-09 09:53 51.47581 -0.46946 89 ft 18 kts 271°
2026-05-09 09:53 51.47583 -0.47113 86 ft 13 kts 270°
2026-05-09 09:54 51.47582 -0.47275 86 ft 16 kts 268°
2026-05-09 09:54 51.47581 -0.47441 86 ft 14 kts 270°
2026-05-09 09:54 51.47581 -0.47613 89 ft 17 kts 270°
2026-05-09 09:54 51.47580 -0.47818 86 ft 20 kts 269°
2026-05-09 09:55 51.47579 -0.48016 87 ft 17 kts 269°
2026-05-09 09:55 51.47578 -0.48185 86 ft 16 kts 269°
2026-05-09 09:55 51.47578 -0.48336 86 ft 14 kts 269°
2026-05-09 09:55 51.47562 -0.48462 90 ft 12 kts 224°
2026-05-09 09:56 51.47474 -0.48475 86 ft 14 kts 180°
2026-05-09 09:56 51.47363 -0.48475 89 ft 17 kts 179°
2026-05-09 09:56 51.47233 -0.48474 89 ft 17 kts 179°
2026-05-09 09:56 51.47104 -0.48471 89 ft 20 kts 179°
2026-05-09 09:57 51.46971 -0.48468 89 ft 15 kts 179°
2026-05-09 09:57 51.46893 -0.48474 86 ft 8 kts 200°
2026-05-09 09:57 51.46876 -0.48563 88 ft 7 kts 271°
2026-05-09 09:57 51.46878 -0.48636 86 ft 5 kts 284°
2026-05-09 09:58 51.46912 -0.48648 88 ft 5 kts
2026-05-09 09:58 51.46927 -0.48647 86 ft 1 kts
2026-05-09 09:58 51.46930 -0.48647 88 ft 1 kts
2026-05-09 09:58 51.46931 -0.48647 89 ft 0 kts